When you browse on this site, cookies collect data to enhance your experience and personalize the content and advertising you see.
Visit our Privacy Policy to learn more. By continuing to use the site, you agree to this use of cookies and data.

Hourly Weather Tizayuca

Today, 4 August, Tuesday

Time Temperature Precipitation Wind Pressure Humidity
00:00 +16°C° 0.3 mm 1 mps 583 mmHg 88%
01:00 +16°C° 0.3 mm 1 mps 583 mmHg 88%
02:00 +14°C° 0.3 mm 0 mps 583 mmHg 89%
03:00 +14°C° 0 mm 0 mps 582 mmHg 89%
04:00 +15°C° 0 mm 1 mps 582 mmHg 88%
05:00 +15°C° 0 mm 1 mps 582 mmHg 88%
06:00 +16°C° 0 mm 1 mps 583 mmHg 83%
07:00 +18°C° 0 mm 1 mps 584 mmHg 78%
08:00 +20°C° 0 mm 1 mps 585 mmHg 72%
09:00 +20°C° 0.1 mm 2 mps 585 mmHg 67%
10:00 +23°C° 0.1 mm 2 mps 585 mmHg 61%
11:00 +24°C° 0.1 mm 3 mps 586 mmHg 55%
12:00 +24°C° 0.6 mm 3 mps 585 mmHg 55%
13:00 +25°C° 0.6 mm 4 mps 585 mmHg 55%
14:00 +25°C° 0.6 mm 5 mps 585 mmHg 55%
15:00 +23°C° 1.2 mm 4 mps 584 mmHg 61%
16:00 +22°C° 1.2 mm 4 mps 583 mmHg 66%
17:00 +20°C° 1.2 mm 4 mps 583 mmHg 72%
18:00 +19°C° 1.2 mm 3 mps 583 mmHg 75%
19:00 +18°C° 1.2 mm 3 mps 583 mmHg 78%
20:00 +17°C° 1.2 mm 3 mps 583 mmHg 81%
21:00 +17°C° 0.1 mm 2 mps 583 mmHg 84%
22:00 +16°C° 0.1 mm 2 mps 583 mmHg 86%
23:00 +15°C° 0.1 mm 1 mps 583 mmHg 88%

Tomorrow, 5 August, Wednesday

Time Temperature Precipitation Wind Pressure Humidity
00:00 +15°C° 0 mm 1 mps 582 mmHg 89%
01:00 +15°C° 0 mm 1 mps 582 mmHg 89%
02:00 +14°C° 0 mm 1 mps 581 mmHg 89%
03:00 +14°C° 0 mm 1 mps 581 mmHg 89%
04:00 +14°C° 0 mm 1 mps 581 mmHg 90%
05:00 +14°C° 0 mm 1 mps 581 mmHg 90%
06:00 +14°C° 0 mm 0 mps 582 mmHg 85%
07:00 +15°C° 0 mm 0 mps 583 mmHg 79%
08:00 +17°C° 0 mm 0 mps 584 mmHg 74%
09:00 +20°C° 0 mm 1 mps 584 mmHg 68%
10:00 +21°C° 0 mm 2 mps 584 mmHg 63%
11:00 +23°C° 0 mm 2 mps 585 mmHg 57%
12:00 +24°C° 0.5 mm 3 mps 584 mmHg 56%
13:00 +23°C° 0.5 mm 4 mps 584 mmHg 54%
14:00 +25°C° 0.5 mm 5 mps 584 mmHg 53%
15:00 +23°C° 1 mm 5 mps 583 mmHg 58%
16:00 +22°C° 1 mm 5 mps 583 mmHg 64%
17:00 +21°C° 1 mm 5 mps 582 mmHg 69%
18:00 +19°C° 1 mm 4 mps 582 mmHg 75%
19:00 +18°C° 1 mm 3 mps 582 mmHg 80%
20:00 +16°C° 1 mm 3 mps 582 mmHg 86%
21:00 +16°C° 0.1 mm 2 mps 582 mmHg 86%
22:00 +15°C° 0.1 mm 2 mps 582 mmHg 87%
23:00 +15°C° 0.1 mm 1 mps 582 mmHg 88%

Day after tomorrow, 6 August, Thursday

Time Temperature Precipitation Wind Pressure Humidity
00:00 +15°C° 0 mm 1 mps 581 mmHg 89%
01:00 +14°C° 0 mm 1 mps 581 mmHg 89%
02:00 +14°C° 0 mm 1 mps 580 mmHg 90%
03:00 +14°C° 0 mm 1 mps 580 mmHg 90%
04:00 +13°C° 0 mm 1 mps 580 mmHg 90%
05:00 +13°C° 0 mm 1 mps 580 mmHg 90%
06:00 +15°C° 0 mm 1 mps 581 mmHg 84%
07:00 +16°C° 0 mm 1 mps 582 mmHg 77%
08:00 +19°C° 0 mm 1 mps 583 mmHg 71%
09:00 +20°C° 0 mm 1 mps 583 mmHg 64%
10:00 +21°C° 0 mm 2 mps 584 mmHg 58%
11:00 +24°C° 0 mm 2 mps 584 mmHg 51%
12:00 +24°C° 0.1 mm 3 mps 584 mmHg 50%
13:00 +25°C° 0.1 mm 4 mps 584 mmHg 48%
14:00 +25°C° 0.1 mm 5 mps 584 mmHg 46%
15:00 +23°C° 0.2 mm 5 mps 583 mmHg 50%
16:00 +22°C° 0.2 mm 4 mps 583 mmHg 54%
17:00 +21°C° 0.2 mm 4 mps 582 mmHg 58%
18:00 +20°C° 0 mm 4 mps 582 mmHg 66%
19:00 +18°C° 0 mm 3 mps 582 mmHg 74%
20:00 +16°C° 0 mm 3 mps 582 mmHg 82%
21:00 +15°C° 0 mm 2 mps 582 mmHg 85%
22:00 +15°C° 0 mm 2 mps 582 mmHg 87%
23:00 +14°C° 0 mm 2 mps 582 mmHg 90%

7 August, Friday

Time Temperature Precipitation Wind Pressure Humidity
00:00 +15°C° 0 mm 2 mps 581 mmHg 89%
01:00 +15°C° 0 mm 2 mps 581 mmHg 89%
02:00 +15°C° 0 mm 1 mps 581 mmHg 88%
03:00 +15°C° 0 mm 2 mps 581 mmHg 88%
04:00 +14°C° 0 mm 2 mps 581 mmHg 87%
05:00 +14°C° 0 mm 2 mps 581 mmHg 86%
06:00 +15°C° 0 mm 2 mps 582 mmHg 80%
07:00 +17°C° 0 mm 2 mps 582 mmHg 74%
08:00 +18°C° 0 mm 2 mps 583 mmHg 69%
09:00 +19°C° 0 mm 2 mps 584 mmHg 63%
10:00 +21°C° 0 mm 3 mps 584 mmHg 58%
11:00 +22°C° 0 mm 3 mps 584 mmHg 53%
12:00 +23°C° 0.4 mm 4 mps 584 mmHg 52%
13:00 +23°C° 0.4 mm 5 mps 584 mmHg 51%
14:00 +25°C° 0.4 mm 5 mps 584 mmHg 49%
15:00 +23°C° 0.5 mm 6 mps 583 mmHg 55%
16:00 +22°C° 0.5 mm 6 mps 583 mmHg 61%
17:00 +20°C° 0.5 mm 6 mps 582 mmHg 66%
18:00 +19°C° 0.4 mm 5 mps 582 mmHg 72%
19:00 +17°C° 0.4 mm 4 mps 582 mmHg 78%
20:00 +16°C° 0.4 mm 3 mps 582 mmHg 85%
21:00 +14°C° 0 mm 3 mps 582 mmHg 86%
22:00 +15°C° 0 mm 2 mps 582 mmHg 87%
23:00 +15°C° 0 mm 2 mps 582 mmHg 88%

8 August, Saturday

Time Temperature Precipitation Wind Pressure Humidity
00:00 +14°C° 0 mm 2 mps 582 mmHg 88%
01:00 +14°C° 0 mm 2 mps 581 mmHg 88%
02:00 +13°C° 0 mm 2 mps 581 mmHg 88%
03:00 +13°C° 0 mm 1 mps 581 mmHg 89%
04:00 +12°C° 0 mm 1 mps 581 mmHg 89%
05:00 +12°C° 0 mm 1 mps 581 mmHg 89%
06:00 +13°C° 0 mm 1 mps 582 mmHg 79%
07:00 +15°C° 0 mm 1 mps 583 mmHg 70%
08:00 +17°C° 0 mm 2 mps 584 mmHg 60%
09:00 +19°C° 0 mm 2 mps 584 mmHg 53%
10:00 +21°C° 0 mm 3 mps 585 mmHg 46%
11:00 +24°C° 0 mm 3 mps 585 mmHg 39%
12:00 +23°C° 0 mm 4 mps 585 mmHg 41%
13:00 +23°C° 0 mm 5 mps 585 mmHg 43%
14:00 +24°C° 0 mm 6 mps 584 mmHg 44%
15:00 +22°C° 0.3 mm 6 mps 584 mmHg 52%
16:00 +21°C° 0.3 mm 5 mps 583 mmHg 59%
17:00 +19°C° 0.3 mm 5 mps 583 mmHg 67%
18:00 +17°C° 0.1 mm 5 mps 583 mmHg 72%
19:00 +15°C° 0.1 mm 4 mps 583 mmHg 78%
20:00 +14°C° 0.1 mm 3 mps 583 mmHg 83%
21:00 +14°C° 0 mm 3 mps 583 mmHg 84%
22:00 +14°C° 0 mm 2 mps 583 mmHg 85%
23:00 +14°C° 0 mm 2 mps 583 mmHg 86%

9 August, Sunday

Time Temperature Precipitation Wind Pressure Humidity
00:00 +13°C° 0 mm 2 mps 582 mmHg 87%
01:00 +13°C° 0 mm 1 mps 581 mmHg 88%
02:00 +12°C° 0 mm 1 mps 581 mmHg 88%
03:00 +12°C° 0 mm 1 mps 581 mmHg 88%
04:00 +12°C° 0 mm 1 mps 581 mmHg 88%
05:00 +11°C° 0 mm 1 mps 581 mmHg 88%
06:00 +13°C° 0 mm 1 mps 582 mmHg 80%
07:00 +14°C° 0 mm 1 mps 583 mmHg 72%
08:00 +16°C° 0 mm 1 mps 583 mmHg 63%
09:00 +18°C° 0 mm 2 mps 584 mmHg 56%
10:00 +20°C° 0 mm 2 mps 585 mmHg 49%
11:00 +23°C° 0 mm 2 mps 585 mmHg 42%
12:00 +22°C° 0 mm 3 mps 585 mmHg 45%
13:00 +22°C° 0 mm 4 mps 584 mmHg 47%
14:00 +23°C° 0 mm 5 mps 584 mmHg 50%
15:00 +22°C° 0.8 mm 5 mps 583 mmHg 57%
16:00 +20°C° 0.8 mm 5 mps 583 mmHg 65%
17:00 +19°C° 0.8 mm 5 mps 582 mmHg 72%
18:00 +18°C° 0.5 mm 4 mps 582 mmHg 76%
19:00 +17°C° 0.5 mm 4 mps 582 mmHg 81%
20:00 +16°C° 0.5 mm 3 mps 582 mmHg 85%
21:00 +16°C° 0.3 mm 3 mps 582 mmHg 86%
22:00 +15°C° 0.3 mm 2 mps 582 mmHg 87%
23:00 +15°C° 0.3 mm 2 mps 582 mmHg 87%
Show more